Date,TemperatureHighF,TemperatureAvgF,TemperatureLowF,DewpointHighF,DewpointAvgF,DewpointLowF,HumidityHigh,HumidityAvg,HumidityLow,PressureMaxIn,PressureMinIn,WindSpeedMaxMPH,WindSpeedAvgMPH,GustSpeedMaxMPH,PrecipitationSumIn
2012-1-1,77,56,48,53,40,29,81,56,28,29.92,29.67,0,0,0,0.00
2012-1-2,50,47,43,46,39,29,94,75,45,29.85,29.50,22,3,30,0.36
2012-1-3,54,49,46,48,45,43,94,87,79,29.91,29.78,12,2,13,0.02
2012-1-4,52,49,47,49,45,40,96,87,64,29.79,29.62,21,4,26,0.60
2012-1-5,52,45,40,45,40,36,91,83,67,29.98,29.76,14,3,17,0.02
2012-1-6,42,39,38,38,36,35,93,90,85,29.98,29.90,54,1,54,0.04
2012-1-7,39,39,38,37,37,36,93,92,91,30.01,29.95,3,0,3,0.00
2012-1-13,40,38,37,34,33,32,84,81,73,29.80,29.66,0,0,0,0.00
2012-1-14,49,38,34,43,34,30,94,85,56,29.68,29.48,19,2,19,0.04
2012-1-15,36,33,29,32,30,26,92,89,85,29.72,29.59,8,0,8,0.00
2012-1-16,37,34,31,34,32,28,94,90,84,29.74,29.53,19,3,19,0.00
2012-1-17,45,35,32,40,32,25,94,89,73,29.59,29.42,79,2,79,0.02
2012-1-18,33,30,28,30,27,20,94,89,61,29.59,29.26,4,0,4,0.00
2012-1-19,30,28,27,28,27,25,94,93,92,29.41,29.18,0,0,0,0.00
2012-1-20,42,37,30,41,36,28,97,96,93,29.38,28.65,15,1,15,0.21
2012-1-21,50,42,39,45,38,35,97,87,65,29.52,28.63,23,5,23,1.24
2012-1-22,45,41,38,42,37,32,94,86,72,29.51,29.04,17,4,17,0.00
2012-1-23,55,44,38,40,37,34,92,78,55,29.66,29.43,14,2,14,0.00
2012-1-24,51,43,38,49,40,33,97,90,74,29.62,29.27,13,3,13,9.52
2012-1-25,52,44,41,43,39,36,95,83,62,29.87,29.50,16,4,16,0.14
2012-1-26,65,44,36,45,38,32,95,80,44,30.21,29.51,100,1,100,0.14
2012-1-27,64,41,33,40,33,26,95,74,38,30.24,30.10,5,0,5,0.00
2012-1-28,46,40,35,35,32,30,85,73,55,30.12,29.69,9,2,9,0.00
2012-1-29,48,46,43,46,43,31,97,90,56,29.70,29.39,19,3,19,0.33
2012-1-30,49,45,43,45,42,40,97,89,77,29.68,29.45,15,2,15,0.06
2012-1-31,45,44,43,41,41,40,90,88,85,29.64,29.63,13,3,13,0.00
2012-2-1,59,46,40,47,41,37,96,83,54,30.08,29.50,5,0,5,0.13
2012-2-2,56,43,37,43,38,34,93,81,59,30.09,29.87,3,0,3,0.00
2012-2-3,81,51,39,44,36,25,92,65,16,29.87,29.67,8,0,8,0.00
2012-2-5,63,45,41,39,36,34,82,72,41,29.84,29.74,6,0,6,0.00
2012-2-6,70,51,38,40,31,21,85,51,23,29.74,29.52,2,0,2,0.00
2012-2-7,80,54,43,33,26,22,57,36,17,29.63,29.46,6,0,6,0.00
2012-2-8,50,46,43,47,42,34,94,86,61,29.89,29.64,3,0,5,0.06
2012-2-9,50,48,46,48,45,42,93,89,83,29.89,29.66,0,0,0,0.04
2012-2-10,57,49,45,51,44,42,93,85,69,29.68,29.53,7,0,7,0.02
2012-2-11,49,46,44,44,42,40,93,86,76,29.77,29.67,11,1,11,0.00
2012-2-12,50,45,42,41,40,39,91,83,68,29.75,29.53,4,0,4,0.00
2012-2-13,50,44,42,46,41,40,95,90,77,29.68,29.54,4,0,4,0.02
2012-2-14,53,42,37,44,38,35,94,88,65,29.81,29.53,8,1,8,0.02
2012-2-15,58,42,38,43,38,36,95,84,55,30.01,29.81,3,0,3,0.00
2012-2-16,45,42,39,43,39,36,95,90,81,29.92,29.82,10,1,10,0.02
2012-2-17,48,44,42,47,43,39,96,94,86,29.88,29.44,19,1,19,0.27
2012-2-18,47,42,39,43,39,37,94,90,83,29.67,29.50,20,4,20,0.10
2012-2-19,48,42,38,38,35,32,89,78,64,29.72,29.52,8,0,8,0.00
2012-2-20,46,42,38,45,38,32,96,86,71,29.62,29.49,8,0,8,0.02
2012-2-21,50,48,46,47,46,45,97,93,89,29.68,29.59,11,1,11,0.06
2012-2-22,69,49,40,46,40,35,95,75,37,29.92,29.53,8,0,8,0.00
2012-2-23,52,43,39,39,36,35,86,76,60,30.02,29.89,4,0,4,0.00
2012-2-24,44,42,41,42,38,36,95,86,78,29.89,29.19,6,0,6,0.22
2012-2-25,56,42,37,40,35,32,93,78,48,29.80,29.19,6,0,6,0.06
2012-2-26,57,40,34,38,30,24,88,69,35,29.82,29.74,6,0,6,0.00
2012-2-27,50,36,28,30,26,21,81,67,42,29.82,29.58,7,0,7,0.00
2012-2-28,46,38,34,37,29,24,92,71,50,29.59,29.06,7,0,7,0.19
2012-2-29,42,38,35,38,35,31,92,88,75,29.40,29.12,13,2,13,0.08
2012-3-1,54,41,35,39,34,32,92,79,49,29.96,29.40,6,0,6,0.00
2012-3-2,44,42,39,42,39,36,92,88,81,30.02,29.93,8,0,8,0.02
2012-3-3,60,49,44,47,44,42,92,83,59,29.97,29.91,9,0,9,0.00
2012-3-4,53,47,45,44,42,40,90,83,71,29.97,29.59,8,1,8,0.00
2012-3-5,59,44,36,44,37,27,94,78,48,29.59,29.30,9,1,9,0.16
2012-3-6,58,41,33,36,28,22,91,64,30,29.97,29.50,7,0,7,0.00
2012-3-7,53,42,29,38,28,25,90,61,41,30.07,29.96,0,0,0,0.00
2012-3-8,66,48,34,40,35,26,87,62,35,30.00,29.75,6,0,6,0.00
2012-3-9,50,46,44,44,42,39,95,86,74,29.85,29.58,7,0,7,0.16
2012-3-10,50,45,43,43,42,40,96,91,74,29.58,29.24,22,0,22,0.31
2012-3-11,48,42,39,42,37,32,96,85,65,29.37,29.18,22,1,22,0.18
2012-3-12,44,41,36,41,36,31,94,82,62,29.27,28.96,11,1,11,0.43
2012-3-13,46,38,34,37,34,32,96,88,67,29.49,28.98,8,1,8,0.10
2012-3-14,43,40,37,41,38,32,95,91,75,29.49,29.30,10,0,10,0.27
2012-3-15,54,46,42,47,43,40,95,89,74,29.29,29.07,10,1,10,0.61
2012-3-16,56,46,40,43,39,36,94,77,52,29.32,28.98,8,0,8,0.12
2012-3-17,57,42,34,43,37,32,95,84,54,29.27,28.96,8,0,8,0.11
2012-3-18,50,39,33,43,36,31,92,87,70,29.46,29.23,2,0,2,0.02
2012-3-19,50,38,33,37,33,30,93,84,48,29.51,29.25,5,0,5,0.02
2012-3-20,44,42,40,41,39,37,95,90,79,29.26,29.12,12,2,12,0.10
2012-3-22,56,46,41,35,33,30,79,61,41,29.58,29.56,6,0,6,0.00
2012-3-23,72,49,35,40,34,26,91,62,23,29.67,29.56,4,0,4,0.00
2012-3-24,67,49,39,41,36,32,88,64,30,29.66,29.50,7,0,7,0.00
2012-3-25,66,50,41,43,38,34,84,64,39,29.50,29.31,5,0,5,0.00
2012-3-26,60,49,44,42,40,32,90,73,42,29.43,29.34,5,0,5,0.00
2012-3-27,51,47,45,43,41,40,85,80,73,29.30,29.28,1,0,1,0.00
2012-4-4,47,43,41,38,37,36,88,79,67,29.72,29.68,5,0,5,0.00
2012-4-5,42,40,40,39,38,37,93,91,88,29.76,29.71,0,0,0,0.00
2012-4-6,44,42,41,36,35,35,79,76,72,29.91,29.90,0,0,0,0.00
2012-4-7,41,41,41,35,35,35,80,80,80,29.91,29.90,0,0,0,0.00
2012-4-8,57,56,55,36,36,35,49,48,44,29.62,29.60,0,0,0,0.00
2012-4-9,79,64,53,45,37,31,57,39,24,29.58,29.43,7,0,7,0.00
2012-4-11,51,49,48,48,46,44,94,86,82,29.32,29.28,0,0,0,0.09
2012-4-12,56,50,44,44,40,38,88,71,56,29.44,29.39,8,0,8,0.00
2012-4-13,68,52,39,48,41,37,94,70,40,29.53,29.42,6,0,6,0.00
2012-4-14,71,54,42,46,42,37,92,64,33,29.76,29.52,3,0,3,0.00
2012-4-15,62,50,46,46,41,37,85,73,48,29.83,29.59,5,0,5,0.00
2012-4-16,60,50,47,50,46,40,96,86,61,29.61,29.48,7,0,7,0.16
2012-4-18,60,53,45,46,44,41,94,71,50,29.65,29.59,5,0,5,0.20
2012-4-20,66,49,44,48,43,38,95,81,51,29.87,29.79,6,0,6,0.04
2012-4-21,80,53,42,49,42,39,93,69,31,29.81,29.60,5,0,5,0.00
2012-4-22,89,66,48,51,45,41,79,52,26,29.61,29.47,4,0,4,0.00
2012-4-23,78,65,55,51,50,48,78,60,38,29.52,29.40,5,0,5,0.00
2012-4-24,55,52,50,49,47,46,91,84,77,29.52,29.46,0,0,0,0.00
2012-4-25,48,48,48,47,47,46,94,94,94,29.26,29.25,0,0,0,0.02
2012-4-26,49,48,47,48,47,46,97,96,94,29.25,29.22,0,0,0,0.08
2012-5-6,79,66,50,48,40,33,68,40,28,30.09,29.96,5,0,5,0.00
2012-5-7,50,47,46,46,41,40,89,82,68,29.99,29.93,0,0,0,0.00
2012-5-8,61,53,49,47,42,38,67,65,59,29.76,29.69,6,0,6,0.00
2012-5-9,64,49,44,40,36,33,85,63,37,29.95,29.76,5,0,5,0.00
2012-5-10,74,55,42,44,35,23,82,51,22,30.06,29.92,3,0,3,0.00
2012-5-11,74,57,40,45,37,32,88,52,26,29.95,29.78,5,0,5,0.00
2012-5-12,82,64,46,44,40,34,76,44,23,29.84,29.71,6,0,6,0.00
2012-5-13,84,67,49,47,42,38,74,43,22,29.80,29.65,7,0,7,0.00
2012-5-14,84,65,54,48,42,37,61,45,26,29.68,29.58,4,0,4,0.00
2012-5-15,86,64,50,54,47,38,91,58,28,29.73,29.63,4,0,4,0.00
2012-5-16,80,66,50,49,42,37,65,44,30,29.70,29.63,6,0,6,0.00
2012-5-17,73,56,46,47,43,39,86,63,30,29.69,29.58,6,0,6,0.00
2012-5-18,68,54,46,44,41,39,82,66,37,29.81,29.66,6,0,6,0.00
2012-5-19,81,60,43,50,41,34,93,54,28,29.74,29.63,2,0,2,0.00
2012-5-20,58,55,52,53,48,40,95,78,54,29.63,29.55,0,0,0,0.12
2012-5-21,60,55,51,58,53,48,96,94,89,29.55,29.40,8,0,8,0.33
2012-5-22,55,50,48,50,47,45,93,89,80,29.54,29.48,7,0,7,0.06
2012-5-23,62,52,48,49,47,45,91,82,61,29.62,29.53,7,0,7,0.00
2012-5-24,76,57,46,50,45,40,93,67,33,29.60,29.40,4,0,4,0.06
2012-5-25,80,63,46,51,45,39,87,56,31,29.52,29.44,6,0,6,0.00
2012-5-26,80,65,50,53,49,44,88,60,36,29.56,29.44,7,0,7,0.00
2012-5-27,67,57,52,49,47,45,84,71,49,29.68,29.56,7,0,7,0.00
2012-5-28,70,57,50,53,47,43,91,70,41,29.74,29.65,4,0,4,0.00
2012-5-29,68,57,47,49,43,39,84,62,37,29.79,29.73,4,0,4,0.00
2012-5-31,59,58,58,56,55,55,91,89,87,29.64,29.60,0,0,0,0.02
2012-6-1,71,60,53,62,55,50,97,85,64,29.61,29.49,7,0,7,0.07
2012-6-2,76,59,51,56,50,44,94,73,42,29.58,29.48,3,0,3,0.00
2012-6-3,52,51,50,45,43,42,77,74,72,29.58,29.56,0,0,0,0.00
2012-6-5,60,50,47,52,47,46,96,90,66,29.82,29.57,0,0,0,0.14
2012-6-6,69,52,46,50,44,42,94,77,47,29.81,29.72,3,0,3,0.00
2012-6-7,59,53,48,56,49,45,95,88,79,29.58,29.42,5,0,5,0.28
2012-6-8,66,54,46,50,46,42,91,76,45,29.65,29.56,5,0,5,0.02
2012-6-9,49,47,46,46,45,44,95,92,86,29.74,29.65,0,0,0,0.00
2012-6-10,73,64,52,51,46,41,78,53,39,29.89,29.81,3,0,3,0.00
2012-6-11,86,67,49,55,47,40,89,54,26,29.82,29.66,6,0,6,0.00
2012-6-12,65,58,54,57,52,46,92,80,65,29.67,29.58,5,0,5,0.02
2012-6-13,62,55,51,52,48,45,90,78,64,29.80,29.62,7,0,7,0.00
2012-6-14,64,54,50,49,46,44,83,76,53,29.76,29.73,8,0,8,0.00
2012-6-15,87,73,58,54,47,42,78,41,28,29.81,29.74,7,0,7,0.00
2012-6-16,70,62,59,61,56,46,91,79,56,29.75,29.53,7,1,7,0.00
2012-6-17,69,60,52,57,53,47,91,79,57,29.55,29.48,8,0,8,0.00
2012-6-18,68,56,50,55,49,47,93,79,52,29.64,29.46,3,0,3,0.05
2012-6-19,74,60,49,54,48,43,94,70,39,29.77,29.64,6,0,6,0.04
2012-6-20,84,66,48,55,48,44,92,57,31,29.77,29.53,4,0,4,0.00
2012-6-21,83,65,53,53,48,45,78,58,33,29.55,29.37,0,0,0,0.00
2012-6-22,59,54,52,52,50,47,94,87,66,29.43,29.32,4,0,4,0.26
2012-6-23,75,57,50,59,51,47,96,83,56,29.56,29.32,83,0,83,0.25
2012-6-24,76,55,47,58,49,46,95,82,43,29.63,29.53,0,0,0,0.00
2012-6-25,75,66,58,53,50,48,74,58,44,29.58,29.54,2,0,2,0.00
2012-6-26,58,54,52,54,51,49,94,90,83,29.67,29.53,0,0,0,0.10
2012-6-27,82,66,49,56,46,30,93,56,16,29.69,29.51,6,0,6,0.00
2012-6-28,77,64,54,54,49,41,82,60,39,29.63,29.50,6,0,6,0.00
2012-6-29,74,63,57,59,56,53,91,79,59,29.68,29.60,3,0,3,0.00
2012-6-30,76,60,58,64,57,54,96,89,66,29.63,29.52,4,0,4,0.08
2012-7-1,71,60,54,57,53,51,93,79,54,29.68,29.57,2,0,2,0.00
2012-7-2,70,60,53,54,50,48,90,70,49,29.62,29.48,2,0,2,0.00
2012-7-3,68,58,52,58,51,48,96,79,56,29.76,29.45,7,0,7,0.34
2012-7-4,80,66,49,56,47,42,92,57,30,29.75,29.57,7,0,7,0.00
2012-7-5,86,76,57,49,46,38,69,37,24,29.65,29.59,3,0,3,0.00
2012-7-6,85,61,52,57,49,46,81,68,34,29.71,29.62,5,0,5,0.00
2012-7-7,86,76,62,54,52,50,66,44,31,29.75,29.63,6,0,6,0.00
2012-7-8,95,73,55,58,54,49,85,54,28,29.69,29.57,5,0,5,0.00
2012-7-9,68,59,56,58,54,51,88,82,70,29.70,29.63,0,0,0,0.00
2012-7-10,67,61,54,56,54,52,91,78,66,29.82,29.79,0,0,0,0.00
2012-7-11,91,79,59,62,57,53,92,49,34,29.69,29.57,6,0,6,0.00
2012-7-12,85,69,56,61,57,52,90,68,43,29.61,29.55,0,0,0,0.00
2012-7-13,81,71,63,64,59,57,83,68,52,29.64,29.55,0,0,0,0.00
2012-7-14,83,65,57,63,58,56,95,80,50,29.58,29.51,0,0,0,0.00
2012-7-15,61,58,55,57,55,53,94,91,85,29.53,29.48,6,0,6,0.00
2012-7-17,71,69,67,61,60,58,75,73,71,29.45,29.43,0,0,0,0.00
2012-7-19,85,77,66,60,57,55,71,51,40,29.63,29.51,7,0,7,0.00
2012-7-20,70,62,56,60,57,55,96,83,66,29.80,29.55,6,0,6,0.55
2012-7-21,83,68,58,62,55,52,89,68,35,29.81,29.67,5,0,5,0.00
2012-7-22,58,56,55,52,51,50,90,84,80,29.69,29.67,4,0,4,0.00
2012-8-8,76,69,61,57,55,54,82,63,49,29.83,29.76,0,0,0,0.00
2012-8-9,61,57,55,55,53,52,93,89,82,29.83,29.80,0,0,0,0.00
2012-8-10,85,71,62,58,55,53,74,59,39,29.71,29.65,6,0,6,0.00
2012-8-11,78,61,56,61,55,53,93,82,54,29.70,29.66,0,0,0,0.00
2012-8-13,96,85,71,61,56,51,53,39,30,29.63,29.57,2,0,2,0.00
2012-8-16,101,85,67,60,56,52,64,39,25,29.55,29.47,2,0,2,0.00
2012-8-17,74,67,61,57,56,55,85,68,54,29.57,29.51,0,0,0,0.00
2012-8-19,72,71,70,58,57,56,62,61,60,29.63,29.61,0,0,0,0.00
2012-8-20,91,76,60,59,54,50,73,48,32,29.65,29.55,4,0,4,0.00
2012-8-21,80,62,56,58,54,51,88,75,48,29.62,29.57,0,0,0,0.00
2012-8-24,59,58,57,47,46,46,68,65,64,29.65,29.62,0,0,0,0.00
2012-8-25,57,57,57,46,46,46,68,68,68,29.63,29.62,0,0,0,0.00
2012-8-27,71,66,59,56,56,54,82,68,59,29.65,29.64,0,0,0,0.00
2012-8-31,77,70,66,48,46,46,48,43,36,29.55,29.54,0,0,0,0.00
2012-9-1,84,70,53,55,52,50,88,56,33,29.75,29.69,0,0,0,0.00
2012-9-12,63,57,48,50,48,44,87,72,62,29.95,29.94,0,0,0,0.00
2012-9-18,95,80,56,58,54,50,83,45,23,29.66,29.62,0,0,0,0.00
2012-9-22,82,76,72,55,52,49,50,43,36,29.76,29.74,1,0,1,0.00
2012-9-27,85,69,58,56,50,48,75,54,35,29.60,29.53,0,0,0,0.00
2012-9-28,92,65,56,59,53,50,89,68,29,29.62,29.54,6,0,6,0.00
2012-9-29,60,58,56,56,53,48,88,82,73,29.74,29.63,0,0,0,0.00
2012-9-30,72,67,64,52,49,48,56,53,49,29.99,29.99,0,0,0,0.00
2012-10-8,79,60,51,48,46,43,88,64,31,29.65,29.53,1,0,1,0.00
2012-10-9,74,55,50,53,48,46,92,79,46,29.74,29.63,2,0,2,0.00
2012-10-10,58,53,46,52,48,45,95,85,74,29.66,29.59,0,0,0,0.00
2012-10-11,52,51,50,47,46,46,86,85,84,29.61,29.59,0,0,0,0.00
2012-10-12,54,52,50,50,49,48,94,90,85,29.52,29.46,7,1,7,0.00
2012-10-15,59,58,57,55,55,54,90,88,86,29.34,29.29,4,0,4,0.00
2012-10-22,45,45,45,42,42,42,90,90,90,29.21,29.20,0,0,0,0.00
2012-10-24,60,52,48,43,41,40,78,68,53,29.66,29.61,0,0,0,0.00
2012-10-25,64,50,45,47,44,42,94,81,53,30.01,29.92,0,0,0,0.00
2012-10-26,51,47,45,50,45,42,96,90,82,29.92,29.62,7,0,7,0.06
2012-10-27,56,51,49,56,49,47,97,94,90,29.64,29.36,8,1,8,0.41
2012-10-28,56,54,50,55,52,49,97,93,86,29.52,29.36,8,0,8,0.14
2012-10-29,56,52,50,55,51,48,97,96,95,29.37,29.32,4,0,4,0.25
2012-10-30,59,58,58,58,58,58,98,98,98,29.43,29.42,0,0,0,0.02
2012-10-31,56,55,53,56,54,52,97,95,91,29.31,29.24,2,0,2,0.06
2012-11-2,62,55,51,56,51,50,96,89,72,29.63,29.57,0,0,0,0.11
2012-11-3,54,53,53,53,52,52,97,96,96,29.63,29.62,0,0,0,0.00
2012-11-5,51,51,51,49,49,49,95,95,95,29.99,29.98,0,0,0,0.00
2012-11-6,47,47,46,46,46,45,96,96,96,29.66,29.63,0,0,0,0.00
2012-11-11,43,43,43,42,42,42,95,95,95,29.71,29.70,0,0,0,0.02
2012-11-12,50,49,47,48,48,47,97,94,90,29.80,29.74,4,0,4,0.00
2012-11-13,50,50,49,47,47,46,91,89,88,29.81,29.79,2,0,2,0.00
2012-11-15,71,49,41,48,42,38,97,79,43,29.74,29.54,4,0,4,0.00
2012-11-16,46,46,46,44,44,44,95,95,94,29.37,29.35,0,0,0,0.00
2012-11-17,45,45,44,42,41,40,88,86,85,29.32,29.27,10,2,10,0.00
2012-11-18,45,45,45,41,41,41,86,85,85,29.32,29.32,5,1,5,0.00
2012-11-19,50,48,48,49,47,46,96,96,95,29.10,28.99,6,0,6,0.47
2012-11-21,46,44,43,43,42,41,93,91,89,29.34,29.28,9,3,9,0.02
2012-11-22,46,45,44,40,39,38,80,79,78,29.94,29.91,0,0,0,0.00
2012-11-23,44,44,43,43,42,42,96,95,95,29.73,29.69,0,0,0,0.09
2012-12-10,44,44,44,43,42,42,96,94,92,29.76,29.68,4,0,4,0.00
2012-12-11,44,44,43,42,41,40,92,91,89,29.68,29.53,7,1,7,0.00
2012-12-18,42,38,37,36,34,33,89,85,79,29.58,29.54,6,1,6,0.00
2012-12-19,38,37,34,36,36,33,96,95,95,29.37,29.30,0,0,0,0.00
2012-12-20,42,41,40,38,37,37,87,85,84,29.42,29.37,6,0,6,0.00
2012-12-21,58,45,37,44,39,36,96,82,56,29.37,29.33,3,0,3,0.00
2012-12-25,42,40,38,38,36,35,95,88,77,29.34,29.27,5,0,5,0.00
2012-12-26,44,42,38,42,39,35,95,89,79,29.52,29.31,103,0,103,0.00
2012-12-27,42,42,41,41,40,39,96,95,93,29.74,29.52,4,0,4,0.00